430  
ASUS41 KALY 301010  
RWRALY  
 
NEW YORK STATE HOURLY WEATHER ROUNDUP  
NATIONAL WEATHER SERVICE ALBANY NY  
600 AM EDT TUE MAY 30 2017  
 
NOTE: "FAIR" INDICATES FEW OR NO CLOUDS BELOW 12,000 FEET WITH NO  
SIGNIFICANT WEATHER AND/OR NO S TO VISIBILITY
.  
 
NYZ032-033-038>043-046>054-057>066-NYZ062>081-082-084-301100-  
EAST  
 
 
CITY SKY/WX TMP DP RH WIND PRES REMARKS
 
ALBANY CLOUDY 56 51 84 S12 30.08R  
GLENS FALLS NOT AVBL  
POUGHKEEPSIE CLOUDY 55 51 86 SE3 30.12R  
NEWBURGH CLOUDY 54 54 100 SE9 30.13S  
MONTGOMERY CLOUDY 56 53 90 SW5 30.12R  
WHITE PLAINS DRIZZLE 53 52 96 SE7 30.14R  
ISLIP CLOUDY 54 52 93 SE7 30.16R  
NEW YORK CITY CLOUDY 55 52 89 SE8 30.15R  
CENTRAL PARK CLOUDY 55 52 89 VRB3 30.17S  

 
 
NYZ005>009-017-018-044>046-055-056-301100-  
CENTRAL  
 
 
CITY SKY/WX TMP DP RH WIND PRES REMARKS
 
FULTON CLOUDY 58 57 97 CALM 29.96R  
SYRACUSE PTCLDY 59 57 93 SE3 29.96R  
ROME CLOUDY 57 55 93 E8 30.02R  
ELMIRA PTCLDY 53 51 93 CALM 29.97F  
BINGHAMTON CLOUDY 55 54 96 S9 30.02S FOG  
MONTICELLO CLOUDY 52 50 93 S9 30.12S  

 
 
NYZ026>034-041>043-087-301100-  
NORTH  
 
 
CITY SKY/WX TMP DP RH WIND PRES REMARKS
 
WATERTOWN RAIN 59 58 96 S7 29.96R FOG  
FORT DRUM NOT AVBL  
OGDENSBURG FAIR 58 55 89 S9 29.94R  
MASSENA CLOUDY 53 53 100 CALM 29.95R  
SARANAC LAKE CLOUDY 41 41 100 CALM 29.98F  
PLATTSBURGH MOCLDY 54 50 86 SE10 30.00S  

 
 
NYZ001>004-010>016-019>021-085-301100-  
WEST  
 
 
CITY SKY/WX TMP DP RH WIND PRES REMARKS
 
NIAGARA FALLS MOCLDY 59 53 80 SW6 29.90R  
BUFFALO CLOUDY 58 54 86 S8 29.91S  
DUNKIRK CLOUDY 59 55 87 S8 29.92S  
JAMESTOWN CLOUDY 55 52 88 S3 29.95S  
WELLSVILLE RAIN 58 53 84 W7 30.01S  
ROCHESTER CLOUDY 61 55 81 S7 29.93R  
PENN YAN MOCLDY 61 53 75 S8 29.97R  

 
 
KEY  
WCI = WIND CHILL INDEX  
VSB = VISIBILITY  
HX = HEAT INDEX  

 
 
 
CLICK HERE TO GO TO PREVIOUS BULLETINS.

The Nexlab NY Page
The Nexlab VT Page
The Nexlab MA Page
The Nexlab CT Page Main Text Page